[[{"header":{"parameterUnit":"m.s-1","parameterCategory":1,"la1":30.2991,"la2":30.254,"lo1":-89.0895,"lo2":-89.0444,"dy":0.0017,"dx":0.0017,"nx":28,"ny":28,"refTime":"2024-08-05T09:00:00:Z","depth":0,"parameterNumber":2,"parameterNumberName":"U-component_of_WINDS"},"data":[0,0,0,0,0,0,0,0,0,0,0,0,0,0,0,0,0,0,0,0,0,0,0,0,0,0,0,0,0,0,0,0,0,0,0,0,0,0,0,0,0,0,0,0,0,0,0,0,0,0,0,0,0,0,0,0,0,0,0.5447,0.5447,0,0.5509,0.551,0.5511,0.5536,0.5536,0.5536,0.5535,0.5599,0.5601,0.5603,0,0,0,0,0,0,0,0,0,0,0,0,0,0.5351,0.5352,0.5447,0.5447,0.5448,0.5509,0.551,0.5511,0.5536,0.5536,0.5536,0.5535,0.5598,0.56,0.5603,0,0,0,0,0,0,0,0,0,0,0,0,0,0.5401,0.5353,0.5447,0.5468,0.5471,0.5509,0.551,0.5511,0.5536,0.5536,0.5536,0.5535,0.5598,0.56,0.5603,0.5624,0,0,0.5611,0.5613,0,0,0,0,0,0,0,0,0.5398,0.5404,0.5464,0.5467,0.547,0.5515,0.5499,0.5549,0.5536,0.5511,0.5535,0.5535,0.5571,0.5576,0.5588,0.5627,0.563,0.5612,0.5613,0.5614,0.5615,0,0,0,0,0,0,0,0.5394,0.5402,0.5471,0.5465,0.5468,0.5475,0.5482,0.5509,0.5541,0.5513,0.5515,0.5522,0.5572,0.5585,0.559,0.5631,0.5612,0.5614,0.5616,0.5617,0.5693,0.5694,0,0,0,0,0,0,0.5387,0.5399,0.5469,0.5473,0.5433,0.5477,0.5485,0.55,0.5541,0.5547,0.5522,0.5523,0.5581,0.5587,0.5592,0.5622,0.5614,0.5617,0.5619,0.5693,0.5693,0.5694,0,0,0,0,0,0,0.5385,0.5393,0.5467,0.5437,0.5446,0.5479,0.5496,0.5502,0.5515,0.5548,0.5554,0.553,0.5581,0.5588,0.5617,0.5624,0.5618,0.5621,0.5693,0.5693,0.5694,0.5679,0,0,0,0,0,0,0.5382,0.5392,0.54,0.5437,0.5448,0.549,0.5497,0.5503,0.5519,0.5521,0.5557,0.5562,0.5581,0.5612,0.5619,0.5628,0.5623,0.5692,0.5693,0.5693,0.5679,0.5679,0.5679,0,0,0,0,0,0.5379,0.5393,0.54,0.5409,0.5458,0.549,0.5497,0.5519,0.552,0.5528,0.5551,0.5561,0.5622,0.5615,0.5623,0.5632,0.5692,0.5693,0.5693,0.5679,0.5679,0.5679,0,0,0,0,0,0,0.5356,0.5398,0.5407,0.5433,0.5458,0.5494,0.5506,0.5518,0.5542,0.5543,0.5569,0.5577,0.5604,0.5621,0.5612,0.5657,0.5658,0.566,0.5644,0.5645,0.5645,0.564,0.5625,0,0,0,0,0,0.5354,0.5376,0.5412,0.5431,0.5444,0.5473,0.5487,0.5502,0.5529,0.5539,0.5563,0.5589,0.5615,0.563,0.5655,0.5682,0.5691,0.5692,0.5692,0.5692,0.5694,0.5712,0.5714,0.5697,0.5697,0.5697,0,0,0.535,0.5376,0.5388,0.5428,0.5449,0.5472,0.5481,0.5504,0.5522,0.5543,0.5572,0.5591,0.5621,0.5649,0.5663,0.5665,0.5701,0.5693,0.5693,0.5695,0.5713,0.5715,0.5716,0.5697,0.5697,0.5697,0,0,0.5355,0.5376,0.5396,0.5417,0.5449,0.5469,0.5474,0.5509,0.5523,0.5552,0.5569,0.5591,0.5633,0.5655,0.5671,0.5688,0.5699,0.5695,0.5695,0.5713,0.5714,0.5715,0.5723,0.5725,0.5697,0.5697,0.5697,0,0.5346,0.5381,0.5404,0.5428,0.5446,0.5466,0.5488,0.5507,0.5546,0.5558,0.5559,0.5615,0.5636,0.5671,0.5676,0.5688,0.5696,0.5691,0.5712,0.5713,0.5715,0.5723,0.5725,0.5696,0.5696,0.5696,0.5696,0,0.5369,0.5393,0.5406,0.5444,0.5463,0.5485,0.5513,0.553,0.5543,0.5563,0.5594,0.5622,0.5654,0.5663,0.5676,0.5701,0.5701,0.5707,0.5709,0.5716,0.5723,0.5726,0.5695,0.5696,0.5696,0.5696,0,0,0.5359,0.5412,0.5416,0.5435,0.5473,0.5493,0.5517,0.5549,0.5564,0.559,0.5612,0.5648,0.5655,0.5674,0.569,0.5705,0.5719,0.5709,0.571,0.5711,0.575,0.5746,0.5749,0.5726,0.5727,0.5727,0.5748,0,0.537,0.5414,0.5437,0.5472,0.5496,0.5517,0.5538,0.5565,0.5584,0.5608,0.563,0.5657,0.5662,0.5674,0.569,0.5713,0.5727,0.5712,0.5748,0.5749,0.5741,0.5753,0.5748,0.5766,0.5751,0.5751,0.5752,0,0.5388,0.5416,0.5453,0.5491,0.5502,0.552,0.5553,0.5575,0.5607,0.562,0.5643,0.5659,0.5687,0.5687,0.5726,0.5716,0.5732,0.5746,0.5747,0.5752,0.5751,0.5759,0.5772,0.5775,0.5756,0.5756,0.5756,0,0.538,0.5426,0.5455,0.547,0.5514,0.5528,0.5547,0.5578,0.5597,0.5625,0.5638,0.5669,0.5686,0.5711,0.5736,0.5733,0.5774,0.5775,0.5787,0.5786,0.5794,0.5794,0.5811,0.5803,0.5803,0.5803,0.5803,0,0.539,0.5412,0.5452,0.5469,0.5496,0.5523,0.5548,0.5569,0.5597,0.5621,0.5641,0.5662,0.5693,0.5719,0.5739,0.577,0.5777,0.579,0.5795,0.5789,0.5787,0.58,0.58,0.5804,0.5803,0.5803,0.5803,0,0.5384,0.5411,0.5445,0.5485,0.5496,0.5514,0.5549,0.5568,0.5589,0.5619,0.5627,0.5661,0.5693,0.5721,0.5762,0.5775,0.5808,0.5813,0.5797,0.58,0.5811,0.581,0.5839,0.5845,0.5831,0.5831,0.5831,0,0.5389,0.5407,0.545,0.5467,0.5487,0.5514,0.5534,0.5562,0.5582,0.562,0.5635,0.5668,0.5697,0.5746,0.5775,0.5808,0.5815,0.5823,0.582,0.5814,0.5817,0.5817,0.582,0.5823,0.5823,0.5823,0.5823,0,0.5395,0.5409,0.5436,0.547,0.5493,0.5521,0.5549,0.5562,0.5596,0.5617,0.5651,0.5673,0.5716,0.575,0.5786,0.5807,0.5821,0.5824,0.5829,0.5823,0.5814,0.5821,0.5799,0.5823,0.5823,0.5823,0.5823,0.5823,0.5396,0.5414,0.5448,0.5479,0.5504,0.553,0.5551,0.5576,0.5604,0.5642,0.5657,0.5692,0.5725,0.5776,0.5797,0.5825,0.5827,0.5834,0.5835,0.5837,0.5837,0.5809,0.5831,0.5831,0.5831,0.5832,0.5832,0,0.5405,0.5428,0.5457,0.5496,0.5521,0.5533,0.5566,0.5586,0.5617,0.5647,0.5675,0.5715,0.5748,0.5781,0.5816,0.5832,0.584,0.5841,0.5841,0.5846,0.5832,0.5825,0.5834,0.5834,0.5834,0.5834,0.5834,0.5834,0.5412,0.5444,0.5462,0.5507,0.5531,0.5565,0.5583,0.5608,0.5633,0.5677,0.5705,0.5726,0.5758,0.5797,0.5829,0.5837,0.585,0.585,0.586,0.5847,0.5846,0.5846,0.5839,0.5852,0.5852,0.5872,0.5872,0.5872]},{"header":{"parameterUnit":"m.s-1","parameterCategory":1,"la1":30.2991,"la2":30.254,"lo1":-89.0895,"lo2":-89.0444,"dy":0.0017,"dx":0.0017,"nx":28,"ny":28,"refTime":"2024-08-05T09:00:00:Z","depth":0,"parameterNumber":3,"parameterNumberName":"V-component_of_WINDS"},"data":[0,0,0,0,0,0,0,0,0,0,0,0,0,0,0,0,0,0,0,0,0,0,0,0,0,0,0,0,0,0,0,0,0,0,0,0,0,0,0,0,0,0,0,0,0,0,0,0,0,0,0,0,0,0,0,0,0,0,-1.3722,-1.3722,0,-1.3735,-1.3735,-1.3735,-1.3747,-1.3747,-1.3747,-1.3748,-1.376,-1.376,-1.376,0,0,0,0,0,0,0,0,0,0,0,0,0,-1.3706,-1.3706,-1.3722,-1.3722,-1.3722,-1.3735,-1.3735,-1.3735,-1.3747,-1.3747,-1.3747,-1.3748,-1.376,-1.376,-1.376,0,0,0,0,0,0,0,0,0,0,0,0,0,-1.3715,-1.3706,-1.3722,-1.3729,-1.373,-1.3735,-1.3735,-1.3735,-1.3747,-1.3747,-1.3747,-1.3748,-1.376,-1.376,-1.376,-1.3757,0,0,-1.3761,-1.3761,0,0,0,0,0,0,0,0,-1.3714,-1.3716,-1.3728,-1.3729,-1.373,-1.374,-1.3734,-1.3742,-1.3747,-1.3741,-1.3748,-1.3748,-1.3753,-1.3754,-1.3755,-1.3758,-1.3758,-1.3761,-1.3761,-1.3761,-1.3761,0,0,0,0,0,0,0,-1.3714,-1.3715,-1.3727,-1.3728,-1.3729,-1.3732,-1.3734,-1.3735,-1.3745,-1.3741,-1.3742,-1.3744,-1.3753,-1.3755,-1.3756,-1.3758,-1.3761,-1.3761,-1.3761,-1.3761,-1.3759,-1.3758,0,0,0,0,0,0,-1.3712,-1.3714,-1.3726,-1.3727,-1.3723,-1.3732,-1.3734,-1.3736,-1.3745,-1.3747,-1.3743,-1.3744,-1.3755,-1.3755,-1.3756,-1.3753,-1.3761,-1.3761,-1.3762,-1.3759,-1.3759,-1.3758,0,0,0,0,0,0,-1.3712,-1.3713,-1.3726,-1.3721,-1.3723,-1.3732,-1.3735,-1.3736,-1.3738,-1.3747,-1.3749,-1.3744,-1.3755,-1.3756,-1.3757,-1.3754,-1.3762,-1.3762,-1.3759,-1.3759,-1.3759,-1.3747,0,0,0,0,0,0,-1.3711,-1.3713,-1.3712,-1.3721,-1.3723,-1.3726,-1.3734,-1.3736,-1.3739,-1.374,-1.3748,-1.3749,-1.3755,-1.3756,-1.3757,-1.3754,-1.3762,-1.376,-1.3759,-1.3759,-1.3748,-1.3746,-1.3745,0,0,0,0,0,-1.3711,-1.3708,-1.3712,-1.3713,-1.3722,-1.3726,-1.3727,-1.3735,-1.3739,-1.3738,-1.3743,-1.3749,-1.3754,-1.3756,-1.3757,-1.3754,-1.376,-1.3759,-1.3759,-1.3748,-1.3747,-1.3745,0,0,0,0,0,0,-1.3698,-1.3709,-1.3714,-1.3714,-1.3719,-1.3728,-1.3727,-1.3733,-1.3736,-1.3737,-1.3746,-1.3748,-1.3747,-1.3751,-1.3753,-1.3752,-1.3758,-1.3757,-1.3749,-1.3748,-1.3747,-1.3745,-1.3762,0,0,0,0,0,-1.3696,-1.3698,-1.3708,-1.3707,-1.371,-1.3718,-1.372,-1.3725,-1.3731,-1.3733,-1.3738,-1.3743,-1.3746,-1.3747,-1.375,-1.3749,-1.375,-1.3747,-1.3746,-1.3745,-1.3744,-1.3743,-1.3742,-1.3757,-1.3757,-1.3757,0,0,-1.369,-1.3696,-1.3697,-1.3705,-1.3709,-1.3711,-1.372,-1.3721,-1.3723,-1.3733,-1.3734,-1.3738,-1.3744,-1.3744,-1.3744,-1.3747,-1.374,-1.3744,-1.3743,-1.3743,-1.3742,-1.3741,-1.374,-1.3756,-1.3756,-1.3756,0,0,-1.3681,-1.3686,-1.3686,-1.3691,-1.3698,-1.3703,-1.3703,-1.3712,-1.3715,-1.3716,-1.3724,-1.3725,-1.373,-1.3734,-1.3736,-1.3728,-1.3733,-1.3729,-1.3722,-1.3721,-1.372,-1.3719,-1.3715,-1.3714,-1.3729,-1.3729,-1.3729,0,-1.3673,-1.3677,-1.3685,-1.3687,-1.3689,-1.3699,-1.3699,-1.3703,-1.371,-1.3711,-1.3715,-1.3721,-1.3725,-1.3726,-1.3724,-1.3726,-1.3725,-1.3728,-1.3719,-1.3718,-1.3718,-1.3714,-1.3713,-1.3728,-1.3728,-1.3728,-1.3728,0,-1.3666,-1.3669,-1.3668,-1.3675,-1.3678,-1.3678,-1.3687,-1.3688,-1.3693,-1.3699,-1.37,-1.3706,-1.371,-1.3711,-1.3715,-1.3711,-1.3713,-1.3718,-1.3724,-1.3715,-1.3713,-1.3711,-1.3727,-1.3727,-1.3728,-1.3728,0,0,-1.3649,-1.3661,-1.3661,-1.3664,-1.3672,-1.3674,-1.3675,-1.368,-1.368,-1.3685,-1.3686,-1.369,-1.3694,-1.3697,-1.3702,-1.3702,-1.3694,-1.3706,-1.3707,-1.3703,-1.369,-1.3685,-1.3684,-1.3698,-1.3698,-1.3698,-1.3689,0,-1.364,-1.3643,-1.3651,-1.365,-1.3653,-1.3662,-1.3663,-1.3668,-1.3673,-1.3675,-1.368,-1.3682,-1.3689,-1.369,-1.369,-1.3695,-1.3692,-1.3696,-1.3698,-1.3698,-1.3695,-1.3682,-1.3678,-1.3669,-1.3688,-1.3688,-1.3688,0,-1.3631,-1.3635,-1.3635,-1.3643,-1.3645,-1.3645,-1.365,-1.3652,-1.3658,-1.3661,-1.3665,-1.3671,-1.3672,-1.3678,-1.3679,-1.3682,-1.3683,-1.3686,-1.3686,-1.3685,-1.3692,-1.3681,-1.3667,-1.3665,-1.3686,-1.3686,-1.3686,0,-1.3617,-1.3623,-1.3624,-1.3627,-1.3636,-1.3636,-1.364,-1.3647,-1.3649,-1.3653,-1.3654,-1.3658,-1.366,-1.3663,-1.367,-1.3674,-1.367,-1.3676,-1.3672,-1.3672,-1.367,-1.367,-1.3655,-1.3672,-1.3672,-1.3672,-1.3672,0,-1.3606,-1.3606,-1.3618,-1.3618,-1.3618,-1.3627,-1.3626,-1.3631,-1.3636,-1.3638,-1.3646,-1.3647,-1.3656,-1.3658,-1.3664,-1.3663,-1.3664,-1.3667,-1.3668,-1.3665,-1.3665,-1.3666,-1.3666,-1.3672,-1.3672,-1.3672,-1.3672,0,-1.359,-1.3599,-1.36,-1.361,-1.3612,-1.3611,-1.3619,-1.3619,-1.3625,-1.3626,-1.3627,-1.3636,-1.3638,-1.3646,-1.365,-1.3654,-1.3652,-1.3655,-1.365,-1.365,-1.3645,-1.3645,-1.3629,-1.3627,-1.3647,-1.3647,-1.3647,0,-1.3583,-1.3582,-1.3592,-1.3594,-1.3597,-1.36,-1.3602,-1.3611,-1.3613,-1.362,-1.3619,-1.3623,-1.3626,-1.3629,-1.3636,-1.3639,-1.3641,-1.3636,-1.3642,-1.3639,-1.364,-1.364,-1.364,-1.3634,-1.3634,-1.3634,-1.3633,0,-1.3567,-1.3572,-1.3575,-1.358,-1.3582,-1.3586,-1.3591,-1.3592,-1.3602,-1.3604,-1.3606,-1.3609,-1.3613,-1.3616,-1.3621,-1.3624,-1.363,-1.3632,-1.3631,-1.3627,-1.3624,-1.3625,-1.3645,-1.3632,-1.3632,-1.3632,-1.3632,-1.3632,-1.3555,-1.3555,-1.3562,-1.3565,-1.357,-1.3574,-1.3574,-1.358,-1.3583,-1.3588,-1.3593,-1.3595,-1.3601,-1.3607,-1.3611,-1.3612,-1.3615,-1.3614,-1.3614,-1.3613,-1.3611,-1.3625,-1.3613,-1.3613,-1.3613,-1.3613,-1.3613,0,-1.3539,-1.3544,-1.3547,-1.3554,-1.3556,-1.3562,-1.3568,-1.3569,-1.3571,-1.3576,-1.3579,-1.3582,-1.3585,-1.3592,-1.3595,-1.3595,-1.3598,-1.3595,-1.3595,-1.3596,-1.3609,-1.3609,-1.3593,-1.3593,-1.3593,-1.3593,-1.3593,-1.3593,-1.3531,-1.3532,-1.3537,-1.354,-1.3545,-1.3547,-1.3549,-1.3553,-1.3557,-1.356,-1.3563,-1.3567,-1.3573,-1.3577,-1.358,-1.3582,-1.3582,-1.3579,-1.3581,-1.3593,-1.3595,-1.3597,-1.3597,-1.3579,-1.3579,-1.3568,-1.3568,-1.3568]}]]